Vorticity
9 14 11 8 8 3 4 10 5 3 2 6 5 4 5 5 3 4 7 3 4 11 7 8 10 13 12 8 -7 -6 4 16 3 2 17 4 5 3 4 11 6 1 -3 -1 8
11 8 12 14 10 9 6 2 8 8 1 2 6 5 5 6 5 4 3 4 3 6 11 10 12 14 15 12 -2 -10 9 1 8 22 7 8 6 6 -2 0 -3 2 7 1 2
12 12 12 12 15 12 9 8 4 7 10 2 5 4 4 6 6 3 4 7 10 5 10 9 6 11 13 10 4 3 10 -10 -7 15 15 -0 14 9 12 2 5 7 16 6 7
11 13 12 12 14 17 14 9 8 4 6 12 0 11 2 5 11 15 13 17 19 15 8 10 9 2 -1 12 1 8 0 -24 -14 0 10 8 0 6 -0 4 5 5 2 1 -2
13 11 12 11 12 15 16 15 11 8 5 9 8 -4 11 4 6 -12 -8 -4 -12 8 16 12 8 10 -0 12 2 3 10 12 -7 6 8 4 6 1 4 10 10 1 -2 -0 1
10 12 11 10 13 14 15 16 14 12 7 7 9 16 1 8 0 2 6 3 0 5 -4 13 7 18 14 7 10 1 10 15 -6 7 10 7 11 3 3 -1 2 2 5 5 4
8 7 9 9 11 13 13 17 15 18 10 8 11 -1 7 20 -0 13 10 2 2 1 12 10 10 2 1 -4 2 13 1 -8 21 -6 2 14 21 -2 -2 3 4 2 1 8 11
9 9 10 11 9 11 13 15 15 18 14 7 7 7 -1 3 16 1 -4 5 14 16 10 13 13 3 -2 17 -12 22 -1 9 2 -2 -0 -8 -0 8 11 14 18 18 23 11 14
11 11 5 16 18 11 15 14 15 16 19 6 17 7 10 6 1 8 5 2 3 7 19 13 13 -3 4 -3 2 5 7 9 18 18 11 6 4 17 23 21 4 8 3 11 11
13 14 8 4 9 18 17 23 16 21 29 11 9 18 -4 6 24 12 8 6 0 8 14 14 4 6 5 -3 1 4 5 7 2 11 13 16 -4 7 7 4 3 3 5 6 8
20 16 14 4 5 11 19 23 28 53 40 6 0 40 -2 54 41 6 25 13 9 2 7 12 -5 1 2 5 4 -4 2 -3 -10 24 6 6 5 -1 11 13 4 7 7 7 8
10 14 19 2 3 5 13 16 6 28 31 37 -3 33 -22 6 12 33 12 15 9 4 8 16 -3 5 6 11 -1 -1 7 3 -5 12 23 10 -5 3 3 5 11 10 6 5 6
12 15 22 10 -3 9 10 19 7 20 23 25 21 -17 2 -30 -14 -7 16 16 12 10 1 -2 -1 11 4 6 6 3 8 2 4 -2 7 12 3 -3 2 33 15 13 13 18 9
11 13 13 28 2 7 12 12 17 -12 13 33 37 45 5 14 10 -22 7 14 15 5 5 7 -25 30 8 1 9 2 -1 5 3 3 -0 -2 1 -1 7 4 -7 -9 -3 3 4
10 8 10 16 21 -1 7 18 9 19 10 35 38 24 56 -21 8 34 0 14 -0 15 -14 3 16 -21 21 21 5 13 6 -5 18 9 15 13 16 38 25 20 16 28 20 13 11
6 11 7 7 13 12 7 13 15 33 13 1 25 26 19 42 4 -33 34 15 19 5 25 -6 27 28 -21 -3 42 -2 11 8 2 6 36 7 -19 41 22 49 33 3 17 12 4
7 7 6 5 11 17 6 6 22 -7 15 38 6 15 21 10 21 -13 42 -2 -16 -18 29 28 -21 11 25 -25 -1 28 1 7 18 19 1 25 29 -24 17 5 18 16 5 -2 6
12 10 12 12 12 17 7 9 13 8 35 -11 -7 26 12 32 33 22 -30 25 5 18 29 3 73 2 34 20 -9 9 -5 -42 4 7 15 36 13 15 24 24 -9 -5 -6 -4 -2
8 17 34 40 36 19 10 13 -19 60 -29 19 12 14 59 25 -10 26 7 10 6 -17 -49 3 -33 65 -27 23 19 13 5 -1 -16 4 14 1 13 5 14 14 10 9 25 14 17
8 20 17 20 23 11 7 -2 10 4 -6 -29 7 13 24 36 2 43 16 39 28 -7 -3 42 18 24 -4 14 15 -1 8 26 -8 11 8 26 5 -34 21 1 -7 3 7 5 10
13 19 -10 10 26 8 -2 38 19 12 11 -1 -6 -1 -33 19 34 39 28 -3 22 4 -13 -48 -6 -14 16 5 -5 2 24 -18 31 -51 -3 7 24 58 32 6 19 12 11 10 8
19 10 -6 29 18 9 3 6 12 5 -7 3 36 -4 5 -3 -0 49 15 -39 85 13 1 -15 10 50 -16 12 7 13 0 -3 -26 61 13 -23 23 17 32 35 18 17 3 -1 15
11 24 -4 23 6 -10 3 20 6 21 3 17 -9 -2 21 10 18 -9 57 23 52 7 26 2 40 -2 51 8 34 9 -3 13 -36 6 20 -26 1 56 37 -18 -9 6 10 -16 12
5 9 -2 7 21 7 7 12 10 0 27 14 17 11 -9 -1 7 13 -23 68 -16 35 3 -3 -22 -20 -3 26 -4 8 15 2 -4 0 1 -8 -2 -31 -4 26 29 1 2 12 10
10 12 4 -13 -7 -0 -15 -7 10 21 5 4 25 16 12 -4 23 -30 30 59 -18 23 58 44 -47 14 -15 2 23 -2 -4 10 9 -9 -1 16 -3 -7 -38 11 14 8 5 10 9
11 2 13 5 17 1 7 10 0 18 15 2 33 15 0 24 12 -28 -78 -77 33 50 42 -82 68 -20 19 -15 23 20 14 1 11 9 12 -24 1 40 34 28 -13 26 20 13 4
5 17 4 13 11 -2 4 11 11 -6 16 12 1 14 39 20 -5 -1 5 13 29 -24 78 -66 35 6 23 20 -18 26 21 16 10 4 16 -7 1 23 -19 8 3 -6 -12 -3 9
Height
3107 3106 3106 3105 3105 3105 3107 3110 3112 3114 3117 3119 3120 3120 3120 3120 3121 3122 3126 3128 3128 3128 3129 3129 3130 3132 3134 3135 3138 3138 3141 3140 3142 3142 3142 3142 3144 3148 3149 3149 3149 3150 3151 3154 3154
3098 3097 3097 3097 3097 3097 3098 3100 3102 3106 3109 3112 3114 3115 3115 3114 3115 3118 3122 3123 3124 3125 3126 3127 3128 3129 3131 3134 3135 3135 3137 3138 3140 3140 3141 3142 3144 3146 3148 3147 3147 3148 3150 3151 3152
3088 3088 3087 3088 3088 3088 3089 3090 3092 3096 3100 3104 3107 3109 3108 3108 3110 3114 3117 3118 3120 3121 3122 3124 3125 3127 3129 3131 3132 3133 3134 3136 3136 3139 3139 3140 3142 3141 3144 3145 3146 3147 3146 3147 3148
3079 3078 3077 3078 3079 3079 3080 3080 3082 3086 3090 3095 3099 3101 3102 3103 3108 3108 3111 3113 3114 3116 3118 3119 3122 3121 3124 3127 3129 3130 3131 3134 3135 3135 3137 3137 3139 3139 3141 3144 3143 3144 3145 3145 3145
3069 3067 3067 3066 3068 3070 3070 3072 3073 3076 3080 3085 3089 3092 3093 3093 3098 3104 3106 3108 3110 3112 3114 3115 3118 3119 3119 3122 3126 3125 3127 3129 3131 3132 3133 3134 3135 3136 3137 3140 3141 3140 3141 3142 3143
3061 3058 3056 3056 3055 3058 3060 3061 3063 3066 3069 3074 3079 3083 3083 3079 3099 3098 3098 3102 3106 3108 3111 3111 3114 3117 3118 3119 3122 3123 3125 3125 3128 3128 3129 3131 3132 3131 3133 3136 3137 3136 3136 3137 3138
3054 3050 3048 3046 3044 3045 3048 3051 3053 3056 3059 3064 3069 3072 3069 3071 3088 3087 3092 3096 3099 3102 3105 3108 3111 3112 3115 3117 3118 3119 3120 3121 3122 3124 3124 3126 3124 3123 3129 3131 3131 3132 3132 3130 3131
3048 3044 3040 3039 3037 3036 3036 3039 3042 3045 3048 3054 3060 3062 3054 3065 3078 3078 3085 3089 3093 3096 3100 3104 3107 3108 3109 3112 3113 3115 3115 3115 3116 3119 3120 3121 3115 3120 3123 3123 3123 3125 3126 3125 3126
3041 3038 3034 3031 3030 3028 3027 3027 3030 3034 3037 3044 3051 3052 3046 3054 3063 3074 3078 3083 3088 3090 3094 3098 3100 3101 3105 3106 3108 3108 3109 3110 3111 3114 3115 3116 3112 3115 3116 3117 3117 3118 3119 3120 3120
3035 3032 3029 3025 3023 3022 3019 3018 3018 3021 3028 3034 3042 3046 3040 3043 3054 3063 3071 3077 3080 3085 3087 3089 3092 3093 3095 3097 3095 3101 3104 3106 3106 3108 3108 3108 3108 3112 3113 3112 3112 3113 3114 3115 3115
3028 3025 3022 3020 3017 3015 3014 3012 3015 3015 3016 3022 3029 3030 3038 3037 3044 3050 3059 3067 3073 3076 3075 3080 3084 3078 3085 3091 3095 3098 3101 3102 3103 3105 3104 3103 3104 3107 3108 3107 3106 3107 3107 3107 3108
3020 3018 3016 3015 3015 3012 3009 3010 3011 3010 3004 3008 3015 3019 3033 3034 3035 3041 3051 3055 3061 3061 3070 3075 3066 3077 3086 3090 3092 3094 3094 3096 3100 3101 3100 3101 3099 3100 3101 3100 3100 3100 3100 3100 3102
3015 3012 3010 3010 3011 3010 3008 3006 3008 3005 3000 2999 3005 3008 3016 3027 3027 3035 3041 3046 3051 3057 3058 3057 3061 3073 3078 3082 3085 3086 3088 3092 3096 3098 3096 3096 3092 3092 3093 3092 3091 3091 3091 3092 3094
3011 3008 3005 3003 3007 3006 3006 3004 3002 3002 2998 2988 2994 2996 3005 3015 3018 3030 3036 3042 3045 3046 3053 3056 3061 3065 3070 3072 3079 3080 3085 3089 3090 3091 3090 3091 3084 3085 3085 3085 3084 3085 3085 3086 3087
3006 3003 3001 3000 2998 3003 3004 3000 2999 3000 2994 2984 2983 2994 2998 3000 3009 3015 3028 3032 3035 3039 3048 3041 3048 3057 3061 3064 3074 3074 3083 3085 3086 3085 3085 3086 3085 3073 3078 3076 3076 3077 3078 3079 3080
3000 2997 2995 2995 2994 2998 2997 2997 2998 2999 2985 2977 2976 2978 2985 2991 3000 3011 3017 3023 3029 3037 3040 3041 3046 3052 3051 3060 3066 3074 3079 3080 3081 3081 3077 3079 3083 3067 3070 3068 3068 3070 3072 3072 3074
2993 2991 2989 2987 2990 2991 2992 2993 2995 2987 2979 2973 2973 2974 2974 2978 2987 2999 3005 3010 3013 3026 3029 3034 3037 3043 3049 3054 3061 3067 3073 3075 3079 3077 3069 3072 3074 3059 3063 3065 3064 3065 3066 3069 3071
2985 2983 2980 2980 2983 2985 2986 2988 2982 2975 2975 2967 2969 2971 2968 2973 2976 2984 2995 2996 3007 3014 3022 3025 3031 3029 3034 3039 3045 3054 3063 3065 3071 3070 3064 3065 3058 3052 3055 3060 3061 3062 3063 3063 3065
2976 2974 2970 2970 2970 2974 2978 2975 2970 2970 2972 2969 2965 2965 2962 2967 2970 2976 2982 2984 2991 3002 3008 3014 3016 3021 3028 3034 3042 3045 3051 3057 3060 3060 3060 3054 3050 3050 3051 3054 3056 3058 3058 3059 3060
2970 2968 2967 2963 2963 2966 2968 2963 2963 2968 2970 2967 2966 2961 2955 2957 2961 2964 2971 2972 2980 2992 2999 3006 3014 3015 3022 3031 3037 3037 3045 3054 3055 3058 3055 3046 3045 3043 3045 3049 3051 3052 3053 3053 3054
2966 2963 2965 2960 2960 2960 2959 2958 2961 2963 2968 2966 2963 2958 2952 2952 2955 2953 2955 2963 2969 2979 2992 3001 3003 3009 3014 3013 3017 3028 3034 3040 3045 3045 3044 3045 3036 3035 3037 3043 3043 3047 3048 3049 3050
2961 2958 2960 2959 2955 2953 2953 2956 2958 2959 2962 2961 2959 2957 2954 2956 2953 2937 2943 2948 2954 2965 2976 2988 2996 2997 2997 3006 3014 3018 3020 3027 3031 3031 3035 3036 3032 3031 3034 3035 3039 3042 3044 3044 3045
2956 2953 2957 2954 2951 2950 2951 2952 2951 2951 2953 2955 2953 2953 2954 2949 2947 2939 2939 2946 2953 2960 2965 2976 2983 2988 2996 3005 3008 3006 3010 3018 3022 3025 3024 3031 3026 3027 3028 3033 3036 3038 3039 3039 3041
2954 2951 2950 2949 2949 2949 2948 2947 2946 2946 2945 2947 2943 2948 2949 2947 2948 2939 2934 2942 2947 2954 2961 2969 2970 2973 2971 2958 2982 2994 3001 3009 3015 3020 3012 3010 3018 3024 3027 3028 3031 3033 3035 3035 3037
2947 2947 2946 2945 2946 2944 2942 2943 2943 2942 2941 2942 2937 2937 2940 2943 2941 2936 2937 2931 2935 2940 2953 2960 2958 2966 2971 2976 2982 2986 2991 2998 3001 2996 3004 3001 3006 3015 3021 3025 3027 3028 3029 3029 3031
2941 2942 2941 2939 2940 2940 2940 2940 2940 2940 2938 2937 2935 2934 2933 2932 2938 2936 2929 2929 2929 2935 2944 2950 2950 2962 2967 2974 2978 2981 2985 2987 2986 2991 2993 2998 2998 3007 3013 3019 3022 3022 3023 3023 3024
2935 2935 2935 2933 2934 2935 2934 2935 2936 2936 2934 2933 2932 2929 2927 2929 2930 2928 2923 2923 2926 2927 2932 2939 2945 2955 2958 2967 2974 2976 2961 2973 2981 2984 2985 2985 2991 3000 3006 3009 3012 3015 3016 3017 3018